Weather History for KFUL - November, 2012

Change the Weather History Date:

Tuesday, November 13, 2012

  Actual Average Record
Temperature  
Mean Temperature 66 °F 62 °F  
Max Temperature 87 °F 73 °F 94 °F (2013)
Min Temperature 45 °F 50 °F 40 °F (2000)
Degree Days  
Heating Degree Days 0 4  
Month to date heating degree days 23 38  
Since 1 July heating degree days 39 62  
Cooling Degree Days 1 1  
Month to date cooling degree days 37 15  
Year to date cooling degree days 2026 1246  
Growing Degree Days 16 (Base 50)    
Moisture  
Dew Point 30 °F    
Average Humidity 33    
Maximum Humidity 58    
Minimum Humidity 7    
Precipitation  
Precipitation 0.00 in 0.03 in 0.01 in (2005)
Month to date precipitation 0.14 0.53  
Year to date precipitation 3.83 11.26  
Since 1 July precipitation 0.30 1.61  
Snow  
Snow 0.00 in - - ()
Month to date snowfall 0.0  
Year to date snowfall 0.0  
Since 1 July snowfall 0.0  
Snow Depth 0.00 in    
Sea Level Pressure  
Sea Level Pressure 30.04 in    
Wind  
Wind Speed 1 mph (SW)    
Max Wind Speed 7 mph    
Max Gust Speed 30 mph    
Visibility 10 miles    
Events      
T = Trace of Precipitation, MM = Missing Value Source: NWS Daily Summary

Daily Weather History Graph

Daily Weather History Graph

Search for Another Location

Airport or City:

Trip Planner

Search our weather history database for the weather conditions in past years. The results will help you decide how hot, cold, wet, or windy it might be!

Date:

Astronomy

Nov. 13, 2012 Rise Set
Actual Time 6:22 AM PST 4:49 PM PST
Civil Twilight 5:56 AM PST 5:15 PM PST
Nautical Twilight 5:26 AM PST 5:45 PM PST
Astronomical Twilight 4:56 AM PST 6:15 PM PST
Moon 6:05 AM PST (11/13) 4:48 PM PST (11/13)
Length of Visible Light 11h 19m
Length of Day
10h 26m
Waning Crescent, 0% of the Moon is Illuminated
Nov 13
Waning Crescent
Nov 13
New
Nov 20
First Quarter
Nov 28
Full
Dec 6
Last Quarter

Hourly Weather History & Observations

Time (PST) Temp. Dew Point Humidity Pressure Visibility Wind Dir Wind Speed Gust Speed Precip Events Conditions
12:53 AM 50.0 °F 28.9 °F 44% 30.10 in 10.0 mi Calm Calm - N/A   Clear
1:53 AM 50.0 °F 28.9 °F 44% 30.11 in 10.0 mi Calm Calm - N/A   Clear
2:53 AM 48.9 °F 30.9 °F 50% 30.10 in 10.0 mi Calm Calm - N/A   Clear
3:53 AM 46.9 °F 30.9 °F 54% 30.09 in 10.0 mi Calm Calm - N/A   Clear
4:53 AM 46.0 °F 32.0 °F 58% 30.08 in 10.0 mi Calm Calm - N/A   Clear
5:53 AM 48.9 °F 28.0 °F 44% 30.07 in 10.0 mi Calm Calm - N/A   Clear
6:53 AM 50.0 °F 28.0 °F 43% 30.09 in 10.0 mi Calm Calm - N/A   Clear
7:53 AM 59.0 °F 28.9 °F 32% 30.09 in 10.0 mi Calm Calm - N/A   Clear
8:53 AM 66.9 °F 25.0 °F 21% 30.09 in 10.0 mi SSW 3.5 mph - N/A   Clear
9:53 AM 73.9 °F 28.0 °F 18% 30.08 in 10.0 mi Calm Calm - N/A   Clear
10:53 AM 80.1 °F 21.0 °F 11% 30.06 in 10.0 mi Calm Calm - N/A   Clear
11:53 AM 84.0 °F 14.0 °F 7% 30.03 in 10.0 mi Calm Calm - N/A   Clear
12:53 PM 86.0 °F 17.1 °F 8% 30.01 in 10.0 mi Calm Calm - N/A   Clear
1:53 PM 86.0 °F 16.0 °F 7% 29.99 in 10.0 mi Calm Calm - N/A   Clear
2:53 PM 82.9 °F 34.0 °F 17% 29.98 in 10.0 mi SSW 4.6 mph - N/A   Clear
3:53 PM 81.0 °F 32.0 °F 17% 29.98 in 10.0 mi Calm Calm - N/A   Clear
4:53 PM 77.0 °F 35.1 °F 22% 29.98 in 10.0 mi West 3.5 mph - N/A   Clear
5:53 PM 70.0 °F 36.0 °F 29% 29.99 in 10.0 mi Calm Calm - N/A   Clear
6:53 PM 66.0 °F 39.9 °F 38% 29.99 in 10.0 mi Calm Calm - N/A   Clear
7:53 PM 62.1 °F 39.0 °F 43% 29.99 in 10.0 mi Calm Calm - N/A   Clear
8:53 PM 59.0 °F 37.0 °F 44% 30.00 in 10.0 mi Calm Calm - N/A   Clear
9:53 PM 61.0 °F 35.1 °F 38% 30.01 in 10.0 mi Calm Calm - N/A   Clear
10:53 PM 60.1 °F 37.0 °F 42% 30.02 in 10.0 mi Calm Calm - N/A   Clear
11:53 PM 55.0 °F 39.0 °F 55% 30.04 in 10.0 mi Calm Calm - N/A   Clear